FW5246 Weather Reports


Display with metric or nautical units.
time (UTC)temp
F
wind
direction
speed
MPH
gust
MPH
rain 1hr
in
rain 24hr
in
rain mn
in
humidity
%
barometer
mb
20260504081519 40 360 0.0 0.0 0.00 0.00 0.00 77 1013.5
20260504050004 41 360 0.0 0.0 0.00 0.00 0.00 78 1013.3
20260504044512 40 360 0.0 1.0 0.00 0.00 0.00 80 1013.2
20260504043005 40 360 0.0 1.0 0.00 0.00 0.00 81 1013.2
20260504041600 40 360 0.0 1.0 0.00 0.00 0.00 81 1013.0
20260504040116 40 360 0.0 1.0 0.00 0.00 0.00 81 1013.1
20260504034634 40 360 0.0 3.0 0.00 0.00 0.00 80 1012.9
20260504033056 41 360 0.0 0.0 0.00 0.00 0.00 80 1012.9
20260504031553 41 360 0.0 0.0 0.00 0.00 0.00 78 1012.8
20260504030118 42 360 0.0 0.0 0.00 0.00 0.00 76 1012.9
20260504024555 42 360 0.0 0.0 0.00 0.00 0.00 73 1012.9
20260504023044 43 360 0.0 0.0 0.00 0.00 0.00 71 1012.9
20260504021546 43 360 0.0 0.0 0.00 0.00 0.00 70 1012.9
20260504020039 44 360 0.0 0.0 0.00 0.00 0.00 69 1012.9
20260504014536 45 360 0.0 0.0 0.00 0.00 0.00 66 1012.9
20260504013040 46 360 0.0 0.0 0.00 0.00 0.00 64 1012.6
20260504011528 47 360 0.0 0.0 0.00 0.00 0.00 62 1012.3
20260504010024 48 360 0.0 0.0 0.00 0.00 0.00 62 1012.3
20260504004521 49 360 0.0 1.0 0.00 0.00 0.00 57 1012.0
20260504003014 50 360 0.0 0.0 0.00 0.00 0.00 54 1011.8
20260504001511 51 360 0.0 1.0 0.00 0.00 0.00 56 1011.8
20260504000007 52 360 0.0 0.0 0.00 0.00 0.00 52 1011.6
20260503234505 53 360 0.0 0.0 0.00 0.00 0.00 54 1011.5
20260503233106 54 360 0.0 2.0 0.00 0.00 0.00 53 1011.6
20260503231559 54 360 0.0 3.0 0.00 0.00 0.00 49 1011.6
20260503224557 55 360 0.0 4.0 0.00 0.00 0.00 51 1011.5
20260503223057 55 360 0.0 5.0 0.00 0.00 0.00 51 1011.5
20260503221555 55 360 0.0 4.0 0.00 0.00 0.00 47 1011.5
20260503220052 55 360 0.0 4.0 0.00 0.00 0.00 47 1011.5
20260503214600 56 360 0.0 10.0 0.00 0.00 0.00 45 1011.5
20260503213049 56 360 0.0 3.0 0.00 0.00 0.00 49 1011.4
20260503211549 57 360 1.0 9.0 0.00 0.00 0.00 45 1011.3
20260503210044 57 360 1.0 9.0 0.00 0.00 0.00 44 1011.2
20260503204552 57 360 1.0 6.0 0.00 0.00 0.00 45 1011.3
20260503203047 57 360 2.0 10.0 0.00 0.00 0.00 42 1011.4
20260503201508 58 360 0.0 9.0 0.00 0.00 0.00 40 1011.4
20260503200005 59 360 2.0 8.0 0.00 0.00 0.00 40 1011.4
20260503194534 59 360 0.0 5.0 0.00 0.00 0.00 41 1011.7
20260503193030 60 360 1.0 5.0 0.00 0.00 0.00 41 1011.8
20260503191524 59 360 3.0 6.0 0.00 0.00 0.00 39 1012.0
20260503190039 58 360 0.0 12.0 0.00 0.00 0.00 43 1012.3
20260503184521 57 360 1.0 10.0 0.00 0.00 0.00 43 1012.5
20260503183022 57 360 0.0 8.0 0.00 0.00 0.00 41 1012.8
20260503181513 55 360 1.0 6.0 0.00 0.00 0.00 41 1013.0
20260503180020 55 360 2.0 5.0 0.00 0.00 0.00 43 1013.3
20260503174512 54 360 1.0 6.0 0.00 0.00 0.00 44 1013.5
20260503173011 54 360 1.0 6.0 0.00 0.00 0.00 48 1013.7
20260503171512 54 360 0.0 11.0 0.00 0.00 0.00 48 1013.5
20260503140118 48 360 0.0 4.0 0.00 0.00 0.00 55 1014.6